Home > Weather > Namur > Past weeks

Flag for Belgium Past Weather in Namur, Belgium — Yesterday and Last 2 Weeks

Now
59 °F

Passing clouds.


Feels Like: 59 °F
Forecast: 54 / 67 °F
Wind: 2 mph from North

Location: Charleroi / Gosselies

Current Time: Jun 1, 2016 at 12:07:29 AM

Latest Report: May 31, 2016 at 11:20 PM


Visibility: N/A

Pressure: 29.95 "Hg

Humidity: 88%

Dew Point: 55 °F

Location of NamurLocation

Past Weather in Namur — Graph

°F

Namur Temperature Yesterday

Maximum temperature yesterday: 63 °F (at 4:50 PM)
Minimum temperature yesterday: 54 °F (at 12:50 AM)
Average temperature yesterday: 58 °F

High & Low Weather Summary for the Past Weeks

 TemperatureHumidityPressure
High72 °F (May 21, 4:20 PM)100% (May 23, 12:20 AM)30.15 "Hg (May 23, 12:20 AM)
Low43 °F (May 25, 3:50 AM)43% (May 19, 6:20 PM)29.65 "Hg (May 30, 9:50 PM)
Average57 °F79%29.91 "Hg
* Reported May 16 10:20 PM — May 31 10:50 PM, Namur, Weather by CustomWeather, © 2016

Note: Actual official high and low records may vary slightly from our data, if they occured in-between our weather recording intervals... More about our weather records

Advertising

Namur Weather History for the Previous 24 Hours

Scroll right to see more
 ConditionsComfort  
Time TempWeatherWind HumidityBarometerVisibility
10:50 PM
Tue, May 31
59 °FPassing clouds.3 mph88%29.95 "HgN/A
10:20 PM59 °FPartly sunny.2 mph88%29.95 "HgN/A
9:50 PM59 °FPartly sunny.5 mph88%29.92 "HgN/A
9:20 PM59 °FPartly sunny.5 mph88%29.92 "HgN/A
8:50 PM59 °FPartly sunny.3 mph94%29.92 "HgN/A
8:20 PM59 °FPartly sunny.3 mph94%29.89 "HgN/A
7:50 PM59 °FPartly sunny.6 mph88%29.89 "HgN/A
7:20 PM61 °FBroken clouds.6 mph83%29.89 "HgN/A
6:50 PM61 °FBroken clouds.6 mph83%29.86 "HgN/A
6:20 PM61 °FPartly sunny.5 mph83%29.86 "HgN/A
5:50 PM61 °FPartly sunny.5 mph83%29.86 "HgN/A
5:20 PM61 °FPartly sunny.6 mph83%29.86 "HgN/A
4:50 PM63 °FPartly sunny.5 mph77%29.83 "HgN/A
4:20 PM61 °FBroken clouds.5 mph83%29.83 "HgN/A
3:50 PM61 °FBroken clouds.6 mph83%29.83 "HgN/A
3:20 PM59 °FBroken clouds.7 mph88%29.83 "HgN/A
2:50 PM59 °FSprinkles. Broken clouds.7 mph88%29.83 "HgN/A
2:20 PM57 °FSprinkles. Partly sunny.9 mph94%29.80 "Hg5 mi
1:50 PM57 °FLight rain. Partly sunny.8 mph94%29.80 "Hg5 mi
1:20 PM57 °FLight rain. Partly sunny.8 mph94%29.80 "Hg4 mi
12:50 PM57 °FPartly sunny.7 mph94%29.77 "Hg4 mi
12:20 PM57 °FDrizzle. Fog.7 mph94%29.77 "Hg2 mi
11:50 AM57 °FDrizzle. Fog.7 mph94%29.74 "Hg2 mi
11:20 AM57 °FDrizzle. Fog.7 mph94%29.74 "Hg2 mi
10:50 AM59 °FFog.2 mph94%29.71 "Hg1 mi
10:20 AM57 °FFog.5 mph100%29.71 "Hg1 mi
9:50 AM57 °FFog.6 mph100%29.71 "Hg1 mi
9:20 AM57 °FDrizzle. Fog.6 mph100%29.71 "Hg1 mi
8:50 AM57 °FDrizzle. Fog.2 mph94%29.68 "Hg1 mi
8:20 AM57 °FDrizzle. Fog.3 mph94%29.68 "Hg1 mi
7:50 AM57 °FDrizzle. Fog.3 mph94%29.68 "Hg0 mi
7:20 AM57 °FDrizzle. Fog.5 mph94%29.65 "Hg0 mi
6:50 AM57 °FFog.5 mph94%29.65 "Hg0 mi
6:20 AM55 °FFog.6 mph100%29.65 "Hg0 mi
5:50 AM55 °FFog.7 mph100%29.65 "Hg0 mi
5:20 AM55 °FFog.7 mph94%29.65 "Hg0 mi
4:50 AM55 °FFog.7 mph94%29.65 "Hg0 mi
4:20 AM55 °FFog.7 mph94%29.65 "Hg0 mi
3:50 AM55 °FFog.7 mph94%29.65 "Hg1 mi
3:20 AM55 °FFog.8 mph94%29.65 "Hg1 mi
2:50 AM55 °FLight rain. Partly cloudy.8 mph94%29.65 "Hg1 mi
2:20 AM55 °FRain. Partly cloudy.9 mph94%29.65 "Hg1 mi
1:50 AM55 °FRain. Partly cloudy.7 mph94%29.65 "Hg2 mi
1:20 AM54 °FPartly cloudy.5 mph100%29.65 "Hg4 mi
12:50 AM54 °FLight rain. Fog.6 mph100%29.65 "Hg2 mi
12:20 AM55 °FFog.6 mph94%29.65 "Hg0 mi
Weather by CustomWeather, © 2016

See weather overviewHow to use our weather pages